ALESUND / VIGRA current weather conditions

sailwx.info

Wind from 200 at 7 knots

Air temperature 6.0° C
Visibility: greater than 5.4 NM
Dewpoint 4.0° C
Present weather: Light rain.

Last reported at 2014-Nov-24 04:20 UTC.
Time now 2014-Nov-24 06:44 UTC

Location: N 62°34' E 006°07'.
View on Google Maps.

See reports from other nearby stations

  
Tides and Currents Weather Stations Pressure Air Temp Water Temp Dewpoint Dewpoint Depression Visibility Wind Speed Wind Dir Waves Ship Positions
date/time (UTC)wind fromknots sea level pressurealtimeterstation pressurevisibilityair tempwater tempwave heightnotes
2014-Nov-24 04:20 200 7 5.4 6.0 Light rain.
2014-Nov-24 03:50 210 7 5.4 6.0
2014-Nov-24 03:20 230 7 5.4 6.0
2014-Nov-24 02:50 240 6 5.4 5.0
2014-Nov-24 02:20 240 8 5.4 5.0 Light rain.
2014-Nov-24 01:50 220 4 5.4 5.0 Light rain.
2014-Nov-24 01:20 170 3 5.4 5.0 Light rain.
2014-Nov-24 00:50 190 2 5.4 5.0
2014-Nov-24 00:20 160 4 5.4 5.0 Drizzle.
2014-Nov-23 23:50 150 4 5.4 5.0
2014-Nov-23 23:20 140 6 5.4 6.0 Light rain.
2014-Nov-23 22:50 140 6 5.4 6.0
2014-Nov-23 22:20 120 6 5.4 6.0 Light rain.
2014-Nov-23 21:50 120 6 5.4 6.0 Light rain.
2014-Nov-23 21:20 120 10 5.4 6.0 Light rain.
2014-Nov-23 20:20 120 10 5.4 6.0 Light rain.
2014-Nov-23 19:20 120 10 5.4 6.0 Light rain.
2014-Nov-23 18:50 130 8 5.4 6.0 Light rain.
2014-Nov-23 18:20 130 11 5.4 6.0 Light rain.
2014-Nov-23 17:50 130 13 5.4 6.0 Light rain.
2014-Nov-23 17:20 130 12 5.4 7.0 Light rain.
2014-Nov-23 16:50 130 13 5.4 7.0 Light rain.
2014-Nov-23 16:20 140 14 5.4 7.0 Light rain.
2014-Nov-23 15:50 130 13 5.4 7.0 Light rain.
2014-Nov-23 15:20 140 11 5.4 7.0 Light rain.
2014-Nov-23 14:50 140 13 5.4 7.0 Rain showers.
2014-Nov-23 14:20 140 14 5.4 7.0 Rain showers.
2014-Nov-23 13:50 140 13 5.4 7.0 Light rain.
2014-Nov-23 13:20 140 12 5.4 8.0 Light drizzle.
2014-Nov-23 12:50 140 16 5.4 8.0 Light drizzle.
2014-Nov-23 12:20 140 15 5.4 8.0 Showers in the vicinity.
2014-Nov-23 11:50 140 16 5.4 8.0
2014-Nov-23 11:20 130 15 5.4 9.0
2014-Nov-23 10:50 140 13 5.4 9.0
2014-Nov-23 10:20 130 15 5.4 9.0
2014-Nov-23 09:50 130 14 5.4 8.0
2014-Nov-23 09:20 150 14 5.4 8.0
2014-Nov-23 08:50 140 13 5.4 7.0
2014-Nov-23 08:20 140 15 5.4 7.0
2014-Nov-23 07:50 140 13 5.4 7.0
2014-Nov-23 07:20 120 12 5.4 7.0
2014-Nov-23 06:50 120 13 5.4 6.0 Showers in the vicinity.
2014-Nov-23 06:20 130 13 5.4 6.0 Light rain drizzle.
2014-Nov-23 05:50 130 13 5.4 6.0 Light drizzle.
2014-Nov-23 05:20 130 13 5.4 6.0 Light drizzle.
2014-Nov-23 04:50 130 12 5.4 6.0 Light drizzle.
2014-Nov-23 04:20 130 12 5.4 7.0
2014-Nov-23 03:50 120 13 5.4 7.0
2014-Nov-23 03:20 120 13 5.4 7.0
2014-Nov-23 02:50 130 14 5.4 6.0
2014-Nov-23 02:20 120 13 5.4 6.0 Precipitation.
2014-Nov-23 01:50 140 13 5.4 6.0
2014-Nov-23 01:20 140 14 5.4 5.0
2014-Nov-23 00:50 140 13 5.4 5.0
2014-Nov-23 00:20 130 14 5.4 5.0
2014-Nov-22 23:50 140 14 5.4 5.0
2014-Nov-22 23:20 130 13 5.4 4.0
2014-Nov-22 22:50 140 13 5.4 4.0
2014-Nov-22 22:20 130 14 5.4 4.0
2014-Nov-22 21:50 130 10 4.0
2014-Nov-22 21:20 140 11 3.0
2014-Nov-22 20:20 150 11 3.0
2014-Nov-22 19:50 150 8 5.4 3.0
2014-Nov-22 19:20 160 9 3.0
2014-Nov-22 18:50 160 8 5.4 3.0
2014-Nov-22 18:20 150 8 3.0
2014-Nov-22 17:50 150 7 5.4 2.0
2014-Nov-22 17:20 150 8 3.0
2014-Nov-22 16:50 130 5 5.4 2.0
2014-Nov-22 16:20 130 7 3.0
2014-Nov-22 15:50 140 6 2.0
2014-Nov-22 15:20 140 5 3.0
2014-Nov-22 14:50 130 6 5.4 2.0
2014-Nov-22 14:20 130 5 4.0
2014-Nov-22 13:50 150 5 5.4 4.0
2014-Nov-22 12:50 100 2 5.4 5.0
2014-Nov-22 11:50 070 4 5.0
2014-Nov-22 11:20 130 3 5.0
2014-Nov-22 10:50 140 7 4.0
2014-Nov-22 10:20 150 7 4.0
2014-Nov-22 09:50 140 6 5.4 4.0
2014-Nov-22 09:20 140 7 3.0
2014-Nov-22 08:50 140 6 5.4 3.0
2014-Nov-22 07:50 150 6 5.4 3.0
2014-Nov-22 07:20 150 8 3.0
2014-Nov-22 06:50 140 8 5.4 2.0
2014-Nov-22 06:20 150 7 3.0